This is the latest recevied weather packets stored in our database for station/object K6GMW. If no packets are shown the sender has not sent any weather packets the latest 10 day(s).
| Time | Temp. | Humidity | Pressure | Rain* | Wind** | Luminosity | Snow |
|---|---|---|---|---|---|---|---|
| 1787869833 | 35.56° C | 46% | 1015 hPa | 0 mm | - | 300 W/m² | - |
| 1787869532 | 35.56° C | 46% | 1015.1 hPa | 0 mm | - | 351 W/m² | - |
| 1787869228 | 35.56° C | 46% | 1015 hPa | 0 mm | - | 367 W/m² | - |
| 1787868927 | 35.56° C | 46% | 1014.9 hPa | 0 mm | - | 380 W/m² | - |
| 1787868626 | 35.56° C | 46% | 1015.1 hPa | 0 mm | - | 390 W/m² | - |
| 1787868324 | 36.11° C | 46% | 1015.1 hPa | 0 mm | - | 391 W/m² | - |
| 1787868020 | 35.56° C | 46% | 1015 hPa | 0 mm | - | 402 W/m² | - |
| 1787867716 | 35° C | 48% | 1015 hPa | 0 mm | - | 407 W/m² | - |
| 1787867416 | 36.11° C | 46% | 1015 hPa | 0 mm | - | 423 W/m² | - |
| 1787867111 | 36.11° C | 46% | 1015.1 hPa | 0 mm | - | 440 W/m² | - |
| 1787866812 | 35.56° C | 47% | 1015.3 hPa | 0 mm | - | 463 W/m² | - |
| 1787866506 | 35.56° C | 48% | 1015.3 hPa | 0 mm | - | 479 W/m² | - |
| 1787866205 | 35° C | 49% | 1015.4 hPa | 0 mm | - | 530 W/m² | - |
| 1787865900 | 35° C | 47% | 1015.2 hPa | 0 mm | - | 572 W/m² | - |
| 1787865595 | 35.56° C | 46% | 1015.5 hPa | 0 mm | - | 588 W/m² | - |
| 1787865290 | 35.56° C | 48% | 1015.5 hPa | 0 mm | - | 607 W/m² | - |
| 1787864986 | 35° C | 48% | 1015.5 hPa | 0 mm | - | 635 W/m² | - |
| 1787864682 | 35° C | 49% | 1015.7 hPa | 0 mm | - | 652 W/m² | - |
| 1787864380 | 35° C | 51% | 1015.5 hPa | 0 mm | - | 662 W/m² | - |
| 1787864080 | 35° C | 50% | 1015.7 hPa | 0 mm | - | 395 W/m² | - |
| 1787863779 | 35° C | 49% | 1015.6 hPa | 0 mm | - | 689 W/m² | - |
| 1787863478 | 35° C | 48% | 1015.8 hPa | 0 mm | - | 700 W/m² | - |
| 1787863174 | 35° C | 51% | 1016 hPa | 0 mm | - | 671 W/m² | - |
| 1787862870 | 35° C | 50% | 1015.9 hPa | 0 mm | - | 729 W/m² | - |
| 1787862569 | 34.44° C | 52% | 1016 hPa | 0 mm | - | 719 W/m² | - |
* Rain latest hour (hover to see other rain measurements)
** Current wind speed in m/s (hover to see current wind gust speed)